Location: Cazavet
(43.0017°N, 1.0431°E)
Time: 17:25:38
(UTC+00:00)

SL-8 Rocket - Visible Passes

Search period start: 11 April 2026 00:00
Search period end: 21 April 2026 00:00
Orbit: 957 x 988 km, 82.9° (Epoch: 11 April)

Date Brightness Start Highest point End Pass type
(mag) Time Alt. Az. Time Alt. Az. Time Alt. Az.
11 Apr 4.9 19:29:22 10° SE 19:34:23 26° E 19:39:26 10° NNE visible
11 Apr 4.8 21:13:34 11° SSW 21:19:20 49° WNW 21:25:25 10° N visible
12 Apr 4.3 19:52:46 10° SSE 19:58:38 46° E 20:04:35 10° NNE visible
12 Apr 5.7 21:38:53 10° SW 21:44:09 28° WNW 21:49:31 10° NNW visible
13 Apr 3.9 20:16:51 10° S 20:23:04 81° E 20:29:23 10° N visible
13 Apr 6.5 22:05:22 10° WSW 22:09:11 17° WNW 22:13:03 10° NNW visible
14 Apr 5.2 18:58:21 10° SE 19:02:54 22° E 19:07:29 10° NE visible
14 Apr 4.5 20:41:32 10° SSW 20:47:40 59° W 20:53:52 10° N visible
15 Apr 4.5 19:21:27 10° SSE 19:27:06 38° E 19:32:50 10° NNE visible
15 Apr 5.5 21:06:50 10° SW 21:12:25 34° WNW 21:18:06 10° N visible
16 Apr 4.0 19:45:19 10° S 19:51:28 67° E 19:57:43 10° NNE visible
16 Apr 6.3 21:32:54 10° WSW 21:37:23 20° WNW 21:41:54 10° NNW visible
17 Apr 4.3 20:09:47 10° SSW 20:16:00 72° W 20:22:19 10° N visible
17 Apr 6.8 22:00:41 10° WNW 22:02:33 11° WNW 22:04:24 10° NW visible
18 Apr 5.3 20:34:51 10° SW 20:40:42 41° WNW 20:46:39 10° N visible
19 Apr 4.1 19:13:50 10° SSE 19:19:53 55° E 19:26:01 10° NNE visible
19 Apr 6.2 21:00:38 10° WSW 21:05:36 24° WNW 21:10:37 10° NNW visible
20 Apr 4.1 19:38:07 10° S 19:44:22 86° W 19:50:43 10° N visible
20 Apr 6.8 21:27:32 10° W 21:30:40 14° WNW 21:33:50 10° NNW visible
